[[{"header":{"parameterUnit":"m.s-1","parameterCategory":1,"la1":30.2991,"la2":30.254,"lo1":-89.0895,"lo2":-89.0444,"dy":0.0017,"dx":0.0017,"nx":28,"ny":28,"refTime":"2023-07-24T21:00:00:Z","depth":0,"parameterNumber":2,"parameterNumberName":"U-component_of_WINDS"},"data":[0,0,0,0,0,0,0,0,0,0,0,0,0,0,0,0,0,0,0,0,0,0,0,0,0,0,0,0,0,0,0,0,0,0,0,0,0,0,0,0,0,0,0,0,0,0,0,0,0,0,0,0,0,0,0,0,0,0,2.6483,2.6483,0,2.6534,2.6535,2.6535,2.6482,2.648,2.6478,2.6476,2.6529,2.6532,2.6536,0,0,0,0,0,0,0,0,0,0,0,0,0,2.6337,2.634,2.6483,2.6484,2.6484,2.6534,2.6535,2.6535,2.6482,2.648,2.6477,2.6475,2.6528,2.6532,2.6536,0,0,0,0,0,0,0,0,0,0,0,0,0,2.6396,2.6341,2.6483,2.6463,2.6462,2.6534,2.6535,2.6536,2.6483,2.6479,2.6476,2.6473,2.6527,2.6531,2.6536,2.663,0,0,2.6552,2.6554,0,0,0,0,0,0,0,0,2.6392,2.6401,2.6466,2.6465,2.6464,2.6498,2.6503,2.6567,2.6483,2.6475,2.6476,2.6472,2.6521,2.6527,2.6543,2.6632,2.6635,2.6552,2.6555,2.6557,2.6559,0,0,0,0,0,0,0,2.6388,2.6399,2.6503,2.6467,2.6465,2.6452,2.6457,2.6515,2.6515,2.6475,2.6472,2.6478,2.652,2.6538,2.6544,2.6635,2.6552,2.6557,2.656,2.6562,2.6799,2.6802,0,0,0,0,0,0,2.6387,2.6396,2.6502,2.6505,2.642,2.6457,2.6462,2.649,2.6514,2.6515,2.6481,2.6476,2.6531,2.6538,2.6546,2.6653,2.6557,2.6562,2.6565,2.6796,2.6799,2.6803,0,0,0,0,0,0,2.6384,2.6397,2.6499,2.6449,2.6461,2.6463,2.6495,2.6493,2.6511,2.6518,2.6518,2.65,2.6529,2.6539,2.6608,2.6654,2.6564,2.6569,2.6792,2.6797,2.6801,2.687,0,0,0,0,0,0,2.638,2.6396,2.6432,2.645,2.6464,2.6562,2.6498,2.6496,2.652,2.6513,2.6536,2.6536,2.6527,2.6601,2.6613,2.6659,2.6573,2.6787,2.6794,2.68,2.6864,2.6877,2.6888,0,0,0,0,0,2.6375,2.6451,2.6434,2.6447,2.6509,2.6565,2.6572,2.656,2.6524,2.6559,2.6563,2.6536,2.6648,2.6608,2.6622,2.667,2.6784,2.6792,2.6799,2.6858,2.6874,2.6888,0,0,0,0,0,0,2.6439,2.6453,2.6435,2.6519,2.6541,2.6555,2.66,2.6578,2.6611,2.6604,2.6588,2.6593,2.6666,2.6675,2.6632,2.6759,2.671,2.672,2.675,2.6765,2.6777,2.6772,2.6577,0,0,0,0,0,2.6463,2.6507,2.6517,2.659,2.6602,2.6599,2.6623,2.6611,2.6633,2.6643,2.6652,2.6675,2.6714,2.6741,2.6778,2.6865,2.6867,2.6905,2.6917,2.6927,2.6935,2.6978,2.6993,2.6827,2.6827,2.6827,0,0,2.6513,2.6526,2.6555,2.6603,2.6619,2.6663,2.6607,2.6658,2.669,2.665,2.6715,2.6723,2.6747,2.6824,2.6859,2.6835,2.6982,2.6936,2.6944,2.6947,2.6987,2.7003,2.7017,2.6832,2.6831,2.6831,0,0,2.6626,2.6642,2.6702,2.6718,2.6741,2.6739,2.6753,2.6771,2.6774,2.6839,2.6808,2.6847,2.6917,2.6933,2.6951,2.7067,2.7041,2.708,2.7142,2.7184,2.7196,2.7208,2.7245,2.7259,2.7088,2.7089,2.7089,0,2.6685,2.6751,2.6736,2.6787,2.6808,2.6773,2.6832,2.6849,2.6884,2.6898,2.6871,2.6954,2.6969,2.7047,2.7075,2.7092,2.7106,2.7076,2.7196,2.7207,2.7218,2.7253,2.7268,2.7093,2.7092,2.7092,2.7092,0,2.682,2.6866,2.6912,2.6944,2.697,2.7026,2.7018,2.7047,2.7032,2.7032,2.7096,2.7112,2.7149,2.7168,2.7156,2.7244,2.7227,2.7199,2.7148,2.7238,2.7271,2.7284,2.7099,2.7097,2.7096,2.7095,0,0,2.6975,2.6996,2.7013,2.7025,2.7047,2.7082,2.7135,2.7171,2.7193,2.7219,2.726,2.7319,2.7291,2.7311,2.73,2.7337,2.7422,2.7303,2.7303,2.7321,2.7516,2.7535,2.7552,2.7406,2.7409,2.7411,2.7513,0,2.7085,2.7175,2.7162,2.7249,2.7289,2.7255,2.73,2.7318,2.7319,2.7353,2.7354,2.7394,2.7356,2.7367,2.7402,2.7405,2.7461,2.7398,2.7443,2.7445,2.7435,2.7569,2.7591,2.7686,2.7526,2.7528,2.753,0,2.7226,2.7253,2.7343,2.7355,2.7371,2.7412,2.7442,2.7475,2.7494,2.7492,2.7513,2.7494,2.7545,2.7495,2.7563,2.752,2.7538,2.7542,2.7545,2.7547,2.7491,2.7571,2.7717,2.773,2.7551,2.7549,2.7548,0,2.7324,2.7384,2.7445,2.7457,2.7474,2.7502,2.7511,2.7526,2.7547,2.7573,2.7586,2.7619,2.7636,2.7661,2.765,2.7616,2.7719,2.767,2.7717,2.7717,2.7738,2.7736,2.7885,2.7755,2.7755,2.7755,2.7755,0,2.7447,2.7502,2.7488,2.7525,2.7586,2.757,2.763,2.7634,2.7647,2.7683,2.7657,2.7692,2.7677,2.7711,2.7703,2.7758,2.7768,2.7766,2.7762,2.7766,2.7766,2.7775,2.7767,2.7759,2.7758,2.7757,2.7757,0,2.7567,2.756,2.7623,2.7632,2.7636,2.7679,2.7687,2.7721,2.7719,2.7764,2.7774,2.7771,2.7808,2.7801,2.7843,2.7838,2.7906,2.7897,2.7899,2.7895,2.7941,2.7936,2.8099,2.8118,2.7979,2.7981,2.7982,0,2.7643,2.7685,2.7698,2.7719,2.7729,2.7765,2.7785,2.7771,2.7793,2.7815,2.7845,2.788,2.7906,2.7967,2.7968,2.7999,2.7988,2.8043,2.7992,2.7993,2.7984,2.798,2.7982,2.8052,2.8054,2.8055,2.8056,0,2.7779,2.7773,2.7803,2.7831,2.7855,2.7877,2.7897,2.7916,2.7903,2.7929,2.7965,2.7986,2.8026,2.806,2.8088,2.8096,2.8073,2.8072,2.8084,2.8086,2.8084,2.8082,2.7922,2.8068,2.8067,2.8066,2.8065,2.8065,2.7877,2.791,2.7923,2.7957,2.7969,2.7987,2.8017,2.8018,2.8049,2.8079,2.807,2.811,2.8125,2.816,2.8171,2.8202,2.8181,2.8199,2.8203,2.8207,2.821,2.8082,2.8207,2.8207,2.8207,2.8206,2.8206,0,2.8008,2.8014,2.8045,2.8071,2.8096,2.8072,2.8091,2.8114,2.815,2.8165,2.8191,2.8231,2.8263,2.8266,2.8295,2.8319,2.8309,2.8327,2.8324,2.8325,2.8229,2.8214,2.8334,2.8334,2.8334,2.8334,2.8334,2.8334,2.8079,2.8132,2.8127,2.8186,2.8192,2.823,2.8243,2.8258,2.8269,2.8315,2.8341,2.8342,2.8351,2.8381,2.8408,2.8408,2.8418,2.844,2.8435,2.8345,2.8332,2.832,2.8305,2.8443,2.8443,2.8528,2.8528,2.8529]},{"header":{"parameterUnit":"m.s-1","parameterCategory":1,"la1":30.2991,"la2":30.254,"lo1":-89.0895,"lo2":-89.0444,"dy":0.0017,"dx":0.0017,"nx":28,"ny":28,"refTime":"2023-07-24T21:00:00:Z","depth":0,"parameterNumber":3,"parameterNumberName":"V-component_of_WINDS"},"data":[0,0,0,0,0,0,0,0,0,0,0,0,0,0,0,0,0,0,0,0,0,0,0,0,0,0,0,0,0,0,0,0,0,0,0,0,0,0,0,0,0,0,0,0,0,0,0,0,0,0,0,0,0,0,0,0,0,0,2.6661,2.6661,0,2.6642,2.6642,2.6642,2.6578,2.6576,2.6575,2.6574,2.6553,2.6554,2.6555,0,0,0,0,0,0,0,0,0,0,0,0,0,2.6639,2.664,2.6661,2.6661,2.666,2.6642,2.6642,2.6642,2.6578,2.6576,2.6575,2.6573,2.6553,2.6554,2.6555,0,0,0,0,0,0,0,0,0,0,0,0,0,2.6637,2.664,2.6661,2.6627,2.6623,2.6642,2.6642,2.6641,2.6579,2.6576,2.6574,2.6572,2.6553,2.6554,2.6555,2.6605,0,0,2.6559,2.6559,0,0,0,0,0,0,0,0,2.6637,2.6638,2.6632,2.6629,2.6625,2.661,2.6626,2.6629,2.6579,2.6596,2.6574,2.6571,2.6574,2.6573,2.6574,2.6604,2.6603,2.6559,2.656,2.656,2.656,0,0,0,0,0,0,0,2.6637,2.6638,2.6653,2.6632,2.6628,2.6611,2.6608,2.6627,2.6597,2.6594,2.6589,2.6588,2.6572,2.6573,2.6573,2.6603,2.6559,2.656,2.6561,2.6561,2.667,2.6672,0,0,0,0,0,0,2.6643,2.6639,2.6654,2.6653,2.6626,2.6613,2.661,2.6617,2.6597,2.6591,2.659,2.6585,2.6572,2.6572,2.6572,2.6627,2.656,2.6561,2.6562,2.6667,2.667,2.6672,0,0,0,0,0,0,2.6643,2.6645,2.6655,2.6645,2.6645,2.6616,2.6624,2.6618,2.6619,2.6593,2.6588,2.6597,2.6571,2.6571,2.6597,2.6626,2.6562,2.6563,2.6665,2.6668,2.6671,2.6739,0,0,0,0,0,0,2.6642,2.6645,2.6665,2.6645,2.6645,2.6681,2.6626,2.6619,2.6622,2.6615,2.6599,2.6594,2.6569,2.6595,2.6598,2.6626,2.6564,2.6662,2.6666,2.667,2.6734,2.6744,2.6753,0,0,0,0,0,2.6642,2.6685,2.6666,2.6668,2.6669,2.6682,2.6682,2.6653,2.6625,2.6643,2.6626,2.6594,2.6623,2.6599,2.6601,2.663,2.666,2.6665,2.667,2.673,2.6742,2.6753,0,0,0,0,0,0,2.6709,2.6682,2.6661,2.6699,2.6694,2.6672,2.6694,2.6668,2.667,2.6663,2.6627,2.6623,2.6654,2.6645,2.6619,2.6676,2.6636,2.6641,2.6681,2.6692,2.6701,2.6702,2.6565,0,0,0,0,0,2.6728,2.6741,2.6717,2.6753,2.6752,2.6724,2.6728,2.6706,2.6699,2.6696,2.6681,2.6674,2.6681,2.6686,2.6691,2.6733,2.6726,2.6753,2.6763,2.6771,2.6776,2.6794,2.6804,2.6688,2.6688,2.6688,0,0,2.6768,2.6755,2.6766,2.6766,2.6759,2.6773,2.6722,2.6739,2.6748,2.6698,2.6721,2.671,2.67,2.6733,2.6747,2.6726,2.6806,2.6777,2.6784,2.6784,2.68,2.6811,2.682,2.6692,2.6691,2.6691,0,0,2.6847,2.684,2.6867,2.6861,2.6851,2.6831,2.6838,2.682,2.681,2.6833,2.6795,2.6805,2.6818,2.6812,2.681,2.6884,2.6854,2.6887,2.6936,2.6954,2.6963,2.6971,2.6995,2.7004,2.6892,2.6893,2.6893,0,2.6897,2.6917,2.6885,2.6904,2.6904,2.6859,2.6886,2.6881,2.6874,2.6874,2.6851,2.6865,2.6856,2.6885,2.6903,2.6904,2.6909,2.6888,2.6964,2.6972,2.6979,2.7001,2.701,2.6896,2.6896,2.6896,2.6895,0,2.6978,2.6992,2.7016,2.7008,2.7011,2.7034,2.7005,2.7012,2.6989,2.6972,2.6994,2.698,2.6981,2.6986,2.6965,2.7012,2.6999,2.6971,2.693,2.6994,2.7014,2.7023,2.6902,2.6901,2.6899,2.6898,0,0,2.7099,2.7072,2.7081,2.7076,2.7061,2.707,2.709,2.709,2.7096,2.7091,2.7105,2.7117,2.709,2.7088,2.7065,2.7082,2.7138,2.7051,2.705,2.7065,2.7186,2.7205,2.7216,2.7118,2.712,2.7121,2.7186,0,2.7172,2.7204,2.7175,2.7213,2.7224,2.7181,2.7197,2.7189,2.7173,2.7179,2.7161,2.7169,2.7134,2.7132,2.7147,2.7128,2.7161,2.7123,2.7129,2.713,2.7131,2.7227,2.7248,2.731,2.7194,2.7195,2.7196,0,2.7261,2.726,2.7298,2.7278,2.7281,2.7297,2.7293,2.73,2.7289,2.7276,2.7273,2.7245,2.7261,2.7222,2.7243,2.7217,2.7218,2.7209,2.7211,2.7209,2.7166,2.7225,2.7329,2.7338,2.7209,2.7208,2.7207,0,2.7342,2.735,2.7373,2.7371,2.7348,2.736,2.7351,2.7337,2.7338,2.7335,2.7335,2.7334,2.7333,2.7332,2.7303,2.7278,2.7326,2.7286,2.7314,2.7315,2.7325,2.7325,2.7428,2.733,2.7329,2.7329,2.7329,0,2.7425,2.745,2.7409,2.7423,2.7449,2.7415,2.7441,2.7427,2.7415,2.7425,2.7388,2.7397,2.736,2.7365,2.7343,2.7361,2.7362,2.7351,2.7344,2.7353,2.7354,2.7351,2.7345,2.7332,2.7331,2.7331,2.733,0,2.7519,2.7494,2.7515,2.7492,2.7486,2.7506,2.7485,2.7496,2.7477,2.749,2.7491,2.7461,2.7465,2.7436,2.7436,2.742,2.7449,2.7436,2.7452,2.7447,2.7477,2.7473,2.7581,2.7592,2.7488,2.7489,2.749,0,2.7573,2.7591,2.7569,2.7572,2.7565,2.7572,2.7572,2.7539,2.7541,2.7528,2.754,2.7541,2.754,2.7548,2.7525,2.7524,2.7509,2.7547,2.7508,2.7516,2.7506,2.7505,2.7505,2.7554,2.7555,2.7556,2.7557,0,2.767,2.7656,2.7658,2.7656,2.7657,2.7654,2.7647,2.7652,2.7616,2.762,2.7623,2.7622,2.762,2.762,2.7614,2.7603,2.7573,2.757,2.7576,2.7584,2.7592,2.7585,2.7472,2.7567,2.7566,2.7565,2.7565,2.7564,2.7744,2.7757,2.7742,2.7745,2.7737,2.7731,2.774,2.7722,2.7724,2.772,2.77,2.7706,2.7692,2.768,2.7672,2.7675,2.7657,2.7666,2.7668,2.7671,2.7675,2.7593,2.7674,2.7674,2.7674,2.7674,2.7673,0,2.7837,2.7825,2.7829,2.782,2.7822,2.7795,2.7786,2.7789,2.7795,2.7784,2.7783,2.7786,2.7785,2.7763,2.7759,2.7766,2.7752,2.7766,2.7764,2.7761,2.7693,2.7687,2.7777,2.7777,2.7777,2.7777,2.7777,2.7777,2.7886,2.7904,2.7888,2.7902,2.7889,2.7895,2.7892,2.7886,2.7877,2.7881,2.7881,2.7866,2.785,2.7844,2.7842,2.7835,2.7834,2.7852,2.7841,2.7777,2.7767,2.7757,2.7751,2.7853,2.7853,2.7909,2.7909,2.791]}]]